TimeEDT,TemperatureF,Dew PointF,Humidity,Sea Level PressureIn,VisibilityMPH,Wind Direction,Wind SpeedMPH,Gust SpeedMPH,PrecipitationIn,Events,Conditions,WindDirDegrees,DateUTC
12:56 AM,57.9,53.1,84,29.71,9.0,NNW,4.6,-,N/A,,Clear,330,2013-05-16 04:56:00
1:56 AM,57.9,53.1,84,29.71,8.0,WNW,4.6,-,N/A,,Clear,290,2013-05-16 05:56:00
2:56 AM,55.0,54.0,96,29.71,5.0,WNW,5.8,-,N/A,,Clear,300,2013-05-16 06:56:00
3:56 AM,55.9,53.1,90,29.70,6.0,WNW,5.8,-,N/A,,Clear,300,2013-05-16 07:56:00
4:56 AM,55.9,51.1,84,29.71,8.0,WNW,4.6,-,N/A,,Clear,300,2013-05-16 08:56:00
5:56 AM,54.0,51.1,90,29.73,10.0,Calm,Calm,-,N/A,,Clear,0,2013-05-16 09:56:00
6:56 AM,55.9,51.1,84,29.76,10.0,NW,3.5,-,N/A,,Mostly Cloudy,320,2013-05-16 10:56:00
7:56 AM,60.1,48.9,67,29.77,10.0,WNW,5.8,-,N/A,,Mostly Cloudy,300,2013-05-16 11:56:00
8:56 AM,64.0,48.9,58,29.79,10.0,NW,5.8,-,N/A,,Mostly Cloudy,310,2013-05-16 12:56:00
9:56 AM,66.9,46.0,47,29.80,10.0,NW,5.8,-,N/A,,Mostly Cloudy,310,2013-05-16 13:56:00
10:56 AM,70.0,41.0,35,29.78,10.0,WNW,8.1,-,N/A,,Mostly Cloudy,290,2013-05-16 14:56:00
11:56 AM,73.0,42.1,33,29.77,10.0,NW,8.1,-,N/A,,Clear,320,2013-05-16 15:56:00
12:56 PM,75.9,43.0,31,29.76,10.0,West,6.9,-,N/A,,Clear,270,2013-05-16 16:56:00
1:56 PM,77.0,44.1,31,29.74,10.0,SSW,9.2,-,N/A,,Partly Cloudy,200,2013-05-16 17:56:00
2:56 PM,78.1,48.0,35,29.73,10.0,WSW,8.1,17.3,N/A,,Partly Cloudy,250,2013-05-16 18:56:00
3:56 PM,78.1,48.0,35,29.72,10.0,Variable,6.9,-,N/A,,Scattered Clouds,0,2013-05-16 19:56:00
4:56 PM,75.0,48.0,38,29.72,10.0,South,10.4,-,N/A,,Partly Cloudy,170,2013-05-16 20:56:00
5:56 PM,75.0,50.0,41,29.71,10.0,South,8.1,-,N/A,,Scattered Clouds,180,2013-05-16 21:56:00
6:56 PM,71.1,51.1,49,29.73,10.0,South,10.4,-,N/A,,Partly Cloudy,180,2013-05-16 22:56:00
7:56 PM,68.0,48.0,49,29.75,10.0,South,4.6,-,N/A,,Partly Cloudy,180,2013-05-16 23:56:00
8:56 PM,64.9,45.0,48,29.77,10.0,Calm,Calm,-,N/A,,Partly Cloudy,0,2013-05-17 00:56:00
9:56 PM,59.0,46.9,64,29.79,10.0,WNW,4.6,-,N/A,,Clear,300,2013-05-17 01:56:00
10:56 PM,57.0,48.9,74,29.81,10.0,NW,5.8,-,N/A,,Clear,320,2013-05-17 02:56:00
11:56 PM,55.9,48.9,77,29.82,10.0,NW,5.8,-,N/A,,Clear,310,2013-05-17 03:56:00